Lexington Weather

Lexington, Massachusetts, USA

24°F
1/21/2021 9:39am 
  • Lexington Conditions: Clear
  • Temperature: 24.1°F / -4.4°CWarmer 2.2°F than last hour.
  • Dew Point: 13.6°FIncreased 1.9°Fsince last hour.
  • Relative Humidity: 64
  • Wind: Wind from S S 1 mph, 10-min avg: Calm, gust: 3 mph
  • Barometer: 29.77 inFalling 0.02  inHg/hr Falling Slowly
  • Visibility: 10 miles
  • Snow Today: Trace
  •   

Regional Weather Roundup
for Boston / Norton, MA

        
000
ASUS41 KBOX 162105
RWRBOX

REGIONAL WEATHER ROUNDUP
NATIONAL WEATHER SERVICE BOSTON/NORTON MA
400 PM EST SAT JAN 16 2021

NOTE:  "FAIR" INDICATES FEW OR NO CLOUDS BELOW 12,000 FEET WITH NO 
SIGNIFICANT WEATHER AND/OR OBSTRUCTIONS TO VISIBILITY.

MAZALL-162200-
EASTERN MASSACHUSETTS
  
CITY           SKY/WX    TMP DP  RH WIND       PRES   REMARKS
BOSTON         PTCLDY    48  41  76 SW16      29.24S                  
BEVERLY        PTCLDY    51  46  83 SW8       29.22S                  
LAWRENCE       NOT AVBL                                               
BEDFORD        MOCLDY    48  45  89 W13G22    29.23S                  
BLUE HILL        N/A     46  40  79 SW14G25   29.23R                  
NORWOOD        CLOUDY    50  41  71 SW12G18   29.26R                  
MARSHFIELD     PTCLDY    54  45  71 SW10G24   29.25R                  
PLYMOUTH       PTCLDY    46  41  82 SW15G23   29.27R                  
TAUNTON        CLOUDY    48  42  80 S9        29.28R                  
NEW BEDFORD    CLOUDY    46  42  86 SW13      29.29S                  
$$

MAZALL-162200-
CAPE COD AND THE ISLANDS
  
CITY           SKY/WX    TMP DP  RH WIND       PRES   REMARKS
FALMOUTH       CLOUDY    45  45 100 SW20G31   29.30S                  
HYANNIS        CLOUDY    46  42  86 SW18G36   29.30R                  
CHATHAM        CLOUDY    45  42  89 SW9       29.33R                  
NANTUCKET      MOCLDY    46  42  86 SW21      29.34R                  
MARTHAS VNYRD  CLOUDY    46  43  89 SW12G18   29.32S                  
$$
 
MAZALL-162200-
CENTRAL AND WESTERN MASSACHUSETTS
  
CITY           SKY/WX    TMP DP  RH WIND       PRES   REMARKS
WORCESTER      CLOUDY    39  37  92 W16       29.25S WCI  30          
FITCHBURG      MOCLDY    44  40  85 SW12      29.25R                  
ORANGE         CLOUDY    40  38  93 SW3       29.27S                  
SPRINGFIELD    MOCLDY    42  37  81 W12       29.28R                  
WESTFIELD      CLOUDY    41  35  79 W10       29.30R                  
NORTH ADAMS    CLOUDY    38  32  79 W14       29.30R WCI  30          
PITTSFIELD     MIX PCPN  34  33  96 W13       29.28R FOG     WCI  25  
$$
 
RIZALL-162200-
RHODE ISLAND
  
CITY           SKY/WX    TMP DP  RH WIND       PRES   REMARKS
PROVIDENCE     CLOUDY    47  41  80 W15       29.30R                  
NEWPORT        PTCLDY    43  39  86 VRB6      29.31R                  
BLOCK ISLAND   CLOUDY    43  40  89 W14G20    29.35R                  
SMITHFIELD     CLOUDY    44  41  89 W10G21    29.28R                  
WESTERLY       CLOUDY    42  39  89 W9        29.33R                  
$$
 
CTZALL-162200-
CONNECTICUT
  
CITY           SKY/WX    TMP DP  RH WIND       PRES   REMARKS
BRADLEY INTL   MOCLDY    43  36  76 W12       29.31R                  
HARTFORD       CLOUDY    45  37  73 SW8       29.32R                  
BRIDGEPORT     CLOUDY    45  37  76 W7        29.34S                  
DANBURY        CLOUDY    40  34  79 SW9       29.34S                  
GROTON         NOT AVBL                                               
NEW HAVEN      CLOUDY    45  38  76 W8        29.33S                  
CHESTER        CLOUDY    45  37  76 VRB7      29.32S                  
MERIDEN        CLOUDY    44  36  73 CALM      29.33R                  
WILLIMANTIC    CLOUDY    44  39  82 SW7       29.31R                  
OXFORD         MOCLDY    40  40 100 W3        29.32S                  
$$

MEZ002-015-021-024-NHZ003-005-008-011-012-014-VTZ005-008-162200-
NORTHERN NEW ENGLAND
  
CITY           SKY/WX    TMP DP  RH WIND       PRES   REMARKS
PORTLAND ME    CLOUDY    48  47  96 SE16G26   29.23F FOG              
BANGOR ME      LGT RAIN  36  33  89 E18G28    29.40F FOG     WCI  26  
CONCORD NH     CLOUDY    43  41  93 NW7       29.20S                  
MANCHESTER NH  CLOUDY    49  44  83 S10       29.20S                  
NASHUA NH      CLOUDY    46  45  96 VRB7      29.24R                  
PORTSMOUTH NH  MOCLDY    49  47  94 S8        29.20S FOG              
JAFFREY NH     CLOUDY    38  36  92 SW6       29.23S FOG              
KEENE NH       CLOUDY    38  37  97 S3        29.26S                  
BURLINGTON VT  LGT SNOW  33  31  92 NW3       29.28F VSB 3/4          
MT. WASHINGTON SNOW      25  25 100 SE62G77     N/A  VSB 1/16WCI   2  
$$

NYZ052-076-162200-
EASTERN NEW YORK
  
CITY           SKY/WX    TMP DP  RH WIND       PRES   REMARKS
ALBANY         CLOUDY    35  32  88 W8        29.33R WCI  29          
NEW YORK CITY  MOCLDY    46  32  58 W18G26    29.37R                  
$$
 
ANZALL-162200-
MARINE OBSERVATIONS
  
STATION/POSITION TIME  TEMP    WIND        PRES    VSBY  WAVE
                       AIR SEA DIR/SP/G                  HT/PER
                 (UTC) (F)     (DEG/KT/KT) (MB)    (MI)  (FT/S)
BOSTON BUOY      2040   47 44  180/ 10/ 14  990.3S
BUZZARDS BAY     2000          250/ 23/ 25  993.6R
NANTUCKET SOUND  2040      41  240/ 16/ 21   N/A
MASS BAY-STELLWA 2004   47     170/ 14/ 16  988.3S  1 5/8 13/11
ISLE OF SHOALS   2000   48     150/ 29/ 31  988.7R
S OF BLOCK IS    2026      48                N/A          11/10
$$

......................KEY.........................
  SKY/WX - SKY CONDITION/PRESENT WEATHER
  TMP    - TEMPERATURE IN FAHRENHEIT
  DWPT   - DEWPOINT IN FAHRENHEIT
  RH     - RELATIVE HUMIDITY IN PERCENT
  WIND   - DIRECTION AND SPEED IN MPH
  PRES   - MEAN SEA LEVEL PRESSURE IN INCHES OF HG
  WCI    - WIND CHILL INDEX
  VSB    - VISIBILITY IN MILES
  HX     - HEAT INDEX
  TC     - TEMPERATURE IN CELSIUS
  VRB    - VARIABLE WIND DIRECTION
  N/A    - NOT AVAILABLE
  
      

Other recent Regional Weather Roundups

Thu Jan 21, 9:04am

Thu Jan 21, 7:04am

Thu Jan 21, 6:04am

Thu Jan 21, 5:04am

Thu Jan 21, 4:04am

Thu Jan 21, 3:04am

Thu Jan 21, 2:04am

Thu Jan 21, 1:04am

Thu Jan 21, 12:04am

Wed Jan 20, 11:04pm

Wed Jan 20, 10:05pm

Wed Jan 20, 9:04pm

Wed Jan 20, 8:04pm

Wed Jan 20, 7:04pm

Wed Jan 20, 6:05pm

Wed Jan 20, 5:05pm

Wed Jan 20, 1:04pm

Wed Jan 20, 12:04pm

Wed Jan 20, 11:04am

Wed Jan 20, 10:04am

Wed Jan 20, 9:05am

Wed Jan 20, 8:04am

Wed Jan 20, 7:04am

Wed Jan 20, 6:04am

Wed Jan 20, 5:04am

Wed Jan 20, 4:04am

Wed Jan 20, 3:05am

Wed Jan 20, 2:04am

Wed Jan 20, 1:04am

Wed Jan 20, 12:04am

Tue Jan 19, 11:04pm

Tue Jan 19, 10:04pm

Tue Jan 19, 9:04pm

Tue Jan 19, 8:04pm

Tue Jan 19, 7:04pm

Tue Jan 19, 6:05pm

Tue Jan 19, 5:04pm

Tue Jan 19, 4:05pm

Tue Jan 19, 3:04pm

Tue Jan 19, 2:04pm

Tue Jan 19, 1:04pm

Tue Jan 19, 12:05pm

Tue Jan 19, 11:04am

Tue Jan 19, 10:05am

Tue Jan 19, 9:04am

Tue Jan 19, 8:04am

Tue Jan 19, 7:04am

Tue Jan 19, 6:04am

Tue Jan 19, 5:04am

Tue Jan 19, 4:04am

Tue Jan 19, 3:04am

Tue Jan 19, 2:04am

Tue Jan 19, 1:04am

Tue Jan 19, 12:04am

Mon Jan 18, 11:04pm

Mon Jan 18, 10:04pm

Mon Jan 18, 9:04pm

Mon Jan 18, 8:05pm

Mon Jan 18, 7:04pm

Mon Jan 18, 6:05pm

Mon Jan 18, 5:04pm

Mon Jan 18, 4:04pm

Mon Jan 18, 3:04pm

Mon Jan 18, 2:04pm

Mon Jan 18, 1:04pm

Mon Jan 18, 12:04pm

Mon Jan 18, 11:04am

Mon Jan 18, 10:04am

Mon Jan 18, 9:04am

Mon Jan 18, 8:04am

Mon Jan 18, 7:04am

Mon Jan 18, 6:04am

Mon Jan 18, 5:04am

Mon Jan 18, 4:04am

Mon Jan 18, 3:04am

Mon Jan 18, 2:04am

Mon Jan 18, 1:04am

Mon Jan 18, 12:04am

Sun Jan 17, 11:04pm

Sun Jan 17, 10:04pm

Sun Jan 17, 9:04pm

Sun Jan 17, 8:04pm

Sun Jan 17, 7:04pm

Sun Jan 17, 6:04pm

Sun Jan 17, 5:04pm

Sun Jan 17, 4:05pm

Sun Jan 17, 3:04pm

Sun Jan 17, 2:04pm

Sun Jan 17, 1:04pm

Sun Jan 17, 12:04pm

Sun Jan 17, 11:04am

Sun Jan 17, 10:04am

Sun Jan 17, 9:04am

Sun Jan 17, 8:04am

Sun Jan 17, 7:04am

Sun Jan 17, 6:04am

Sun Jan 17, 5:04am

Sun Jan 17, 4:04am

Sun Jan 17, 3:04am

Sun Jan 17, 2:04am

Sun Jan 17, 1:04am

Sun Jan 17, 12:04am

Sat Jan 16, 11:05pm

Sat Jan 16, 10:04pm

Sat Jan 16, 9:04pm

Sat Jan 16, 8:05pm

Sat Jan 16, 7:04pm

Sat Jan 16, 6:04pm

Sat Jan 16, 5:05pm

Sat Jan 16, 3:05pm

Sat Jan 16, 2:04pm

Sat Jan 16, 1:04pm

Sat Jan 16, 12:04pm

Sat Jan 16, 11:04am

Sat Jan 16, 10:05am

Sat Jan 16, 9:04am

Sat Jan 16, 8:04am

Sat Jan 16, 7:04am

Sat Jan 16, 6:04am

Sat Jan 16, 5:04am

Sat Jan 16, 4:04am

Sat Jan 16, 3:05am

Sat Jan 16, 2:04am

Sat Jan 16, 1:04am

Sat Jan 16, 12:05am

Fri Jan 15, 11:05pm

Fri Jan 15, 10:04pm

Fri Jan 15, 9:04pm

Fri Jan 15, 8:04pm

Fri Jan 15, 7:05pm

Fri Jan 15, 6:05pm

Fri Jan 15, 5:05pm

Fri Jan 15, 4:05pm

Fri Jan 15, 3:04pm

Fri Jan 15, 2:05pm

Fri Jan 15, 1:04pm

Fri Jan 15, 12:05pm

Fri Jan 15, 11:04am

Fri Jan 15, 10:04am

Fri Jan 15, 9:05am

Fri Jan 15, 8:04am

Fri Jan 15, 7:04am

Fri Jan 15, 6:04am

Fri Jan 15, 5:05am

Fri Jan 15, 4:04am

Fri Jan 15, 3:04am

Fri Jan 15, 2:04am

Fri Jan 15, 1:04am

Fri Jan 15, 12:05am

Thu Jan 14, 11:04pm

Thu Jan 14, 10:04pm

Thu Jan 14, 9:04pm

Thu Jan 14, 8:05pm

Thu Jan 14, 7:04pm

Thu Jan 14, 6:04pm

Thu Jan 14, 5:04pm

Thu Jan 14, 4:05pm

Thu Jan 14, 3:04pm

Thu Jan 14, 2:04pm

Thu Jan 14, 1:04pm

Thu Jan 14, 12:05pm

Thu Jan 14, 11:05am

Thu Jan 14, 10:04am

Thu Jan 14, 9:04am

Thu Jan 14, 8:04am

Thu Jan 14, 7:04am

Thu Jan 14, 6:04am

Thu Jan 14, 5:04am

Thu Jan 14, 4:04am

Thu Jan 14, 3:04am

Thu Jan 14, 2:04am

Thu Jan 14, 1:04am

Thu Jan 14, 12:04am

Wed Jan 13, 11:04pm

Wed Jan 13, 10:04pm

Wed Jan 13, 9:04pm

Wed Jan 13, 8:05pm

Wed Jan 13, 7:04pm

Wed Jan 13, 6:04pm

Wed Jan 13, 5:04pm

Wed Jan 13, 4:04pm

Wed Jan 13, 3:05pm

Wed Jan 13, 2:04pm

Wed Jan 13, 1:04pm

Wed Jan 13, 12:04pm

Wed Jan 13, 11:04am

Wed Jan 13, 10:04am

Wed Jan 13, 9:05am

Wed Jan 13, 8:04am

Wed Jan 13, 7:04am

Wed Jan 13, 6:04am

Wed Jan 13, 5:04am

Wed Jan 13, 4:04am

Wed Jan 13, 3:04am

Wed Jan 13, 2:04am

Wed Jan 13, 1:04am

Wed Jan 13, 12:05am

Tue Jan 12, 11:04pm

Tue Jan 12, 10:04pm

Tue Jan 12, 9:04pm

Tue Jan 12, 8:05pm

Tue Jan 12, 7:04pm

Meta data:

ID: 8bd793a8-c395-4a54-a20e-2f5404e1bf2b
Link: https://api.weather.gov/products/8bd793a8-c395-4a54-a20e-2f5404e1bf2b